#timestamp,LO_Frequency,Hit 
1502425215.2,286046999.3,Y
1502425235.9,286046984.5,N
1502425255.7,286046984.4,N
1502425275.6,286046984.5,N
1502425295.4,286046985.1,N
1502425315.2,286046984.4,N
1502425335.0,286046983.7,N
1502425335.9,286046983.7,N
1502425355.8,286046984.4,N
1502425375.6,286046984.7,N
1502425395.4,286046985.6,Y
1502425415.3,286046997.3,N
1502425435.1,286047000.7,N
1502425455.8,286046998.5,N
1502425475.7,286046999.0,N
1502425495.1,286046998.5,N
1502425496.0,286046998.5,N
1502425515.8,286046998.5,N
1502425535.6,286046998.2,N
1502425555.5,286046998.5,N
1502425575.3,286046998.8,N
1502425595.1,286046998.9,N
1502425615.8,286046998.9,N
1502425635.7,286046998.9,N
1502425655.5,286046999.0,Y
1502425675.4,286047001.1,Y
1502425695.2,286047000.1,N
1502425715.0,286046999.8,N
1502425715.9,286046999.8,N
1502425735.8,286047000.2,N
1502425755.6,286047000.2,N
1502425775.4,286047000.2,N
1502425795.2,286047002.7,Y
1502425815.1,286047002.8,N
1502425816.0,286047002.8,N
1502425835.8,286046999.7,N
1502425855.6,286047000.2,N
1502425875.5,286047002.7,N
1502425895.3,286047002.8,N
1502425915.1,286046999.9,N
1502425935.9,286046999.9,N
1502425955.7,286047002.8,N
1502425975.5,286047002.8,N
1502425995.4,286046999.8,N
1502426015.2,286046999.7,N
1502426035.0,286046999.9,N
1502426035.9,286046999.9,N
1502426055.8,286047001.0,N
1502426075.6,286047000.7,N
1502426095.4,286047000.7,N
1502426115.3,286047000.8,N
1502426135.1,286047001.2,N
1502426136.0,286047001.2,N
1502426155.8,286047001.0,N
1502426175.6,286047001.0,N
1502426195.5,286047001.1,N
1502426215.3,286047000.6,N
1502426235.1,286047000.9,N
1502426255.9,286046998.6,N
1502426275.7,286046998.3,N
1502426295.5,286046998.1,N
1502426315.4,286046998.2,N
1502426335.2,286046998.9,N
1502426355.0,286046998.5,N
1502426355.9,286046998.5,N
1502426375.8,286046998.5,N
1502426395.6,286046998.3,N
1502426415.4,286046999.4,N
1502426435.2,286046999.2,N
1502426455.1,286046999.0,N
1502426456.0,286046999.0,N
1502426475.8,286046999.4,N
1502426495.6,286046999.2,N
1502426515.5,286046996.7,Y
1502426535.3,286046998.5,N
1502426555.1,286046998.5,N
1502426575.9,286046998.6,N
1502426595.7,286046998.6,N
1502426615.5,286046998.4,N
1502426635.4,286046998.8,N
1502426655.2,286046997.0,Y
1502426675.0,286046999.9,N
1502426675.9,286046999.9,N
1502426695.8,286047000.0,N
1502426715.6,286046999.9,N
1502426735.4,286047000.0,N
1502426755.3,286047000.3,N
1502426775.1,286047000.0,N
1502426776.0,286047000.0,N
1502426795.8,286047000.3,N
1502426815.7,286047001.0,N
1502426835.5,286047000.4,N
1502426855.3,286047000.5,N
1502426875.1,286047000.4,N
1502426895.9,286046999.8,N
1502426915.7,286047000.5,N
1502426935.5,286047000.6,N
1502426955.4,286046998.1,Y
1502426975.2,286046998.4,N
1502426995.0,286046998.4,N
1502426995.9,286046998.4,N
1502427015.8,286047001.1,N
1502427035.6,286047000.3,N
1502427055.4,286047000.8,N
1502427075.3,286046998.3,N
1502427095.1,286047001.2,N
1502427115.8,286047000.8,N
1502427135.7,286046998.7,N
1502427155.5,286046999.9,N
1502427175.3,286046999.4,N
1502427195.2,286046999.3,N
1502427215.9,286047000.8,N
1502427235.7,286046999.6,N
1502427255.6,286047000.8,N
1502427275.4,286047000.8,N
1502427295.2,286047001.1,N
1502427315.0,286046998.3,N
1502427315.9,286046998.3,N
1502427335.8,286046998.1,N
1502427355.6,286046998.8,N
1502427375.4,286047000.6,N
1502427395.3,286046998.7,N
1502427415.1,286046998.7,N
1502427435.2,286046998.2,N
1502427455.1,286046998.1,N
1502427456.0,286046998.1,N
1502427475.8,286047001.2,N
1502427495.6,286046998.2,N
1502427515.5,286046998.5,N
1502427535.3,286046998.2,N
1502427555.1,286046998.5,N
1502427575.8,286046998.2,N
1502427595.7,286046999.5,N
